Time,TemperatureF,DewpointF,PressureIn,WindDirection,WindDirectionDegrees,WindSpeedMPH,WindSpeedGustMPH,Humidity,HourlyPrecipIn,Conditions,Clouds,dailyrainin,SoftwareType,DateUTC
2013-04-04 00:02:00,33.0,24.0,-100.00,West,280,0.0,0.0,68,0.00,,,-99.99,,2013-04-04 05:02:00,
2013-04-04 00:12:00,33.0,24.0,-100.00,NW,310,2.0,2.0,70,0.00,,,-99.99,,2013-04-04 05:12:00,
2013-04-04 00:23:00,33.0,25.0,-100.00,NW,315,2.0,3.0,72,0.00,,,-99.99,,2013-04-04 05:23:00,
2013-04-04 00:32:00,32.0,25.0,-100.00,NW,305,4.0,4.0,74,0.00,,,-99.99,,2013-04-04 05:32:00,
2013-04-04 00:42:00,31.0,25.0,-100.00,WNW,300,1.0,3.0,75,0.00,,,-99.99,,2013-04-04 05:42:00,
2013-04-04 00:52:00,31.0,25.0,-100.00,WNW,300,1.0,1.0,76,0.00,,,-99.99,,2013-04-04 05:52:00,
2013-04-04 01:02:00,31.0,24.0,-100.00,WNW,290,1.0,2.0,75,0.00,,,-99.99,,2013-04-04 06:02:00,
2013-04-04 01:12:00,31.0,24.0,-100.00,WNW,290,1.0,1.0,74,0.00,,,-99.99,,2013-04-04 06:12:00,
2013-04-04 01:22:00,31.0,24.0,-100.00,WNW,285,0.0,1.0,75,0.00,,,-99.99,,2013-04-04 06:22:00,
2013-04-04 01:32:00,31.0,24.0,-100.00,West,275,1.0,1.0,76,0.00,,,-99.99,,2013-04-04 06:32:00,
2013-04-04 01:42:00,31.0,25.0,-100.00,West,270,0.0,1.0,76,0.00,,,-99.99,,2013-04-04 06:42:00,
2013-04-04 01:52:00,30.0,24.0,-100.00,NW,315,2.0,3.0,77,0.00,,,-99.99,,2013-04-04 06:52:00,
2013-04-04 02:02:00,30.0,24.0,-100.00,NW,315,2.0,3.0,77,0.00,,,-99.99,,2013-04-04 07:02:00,
2013-04-04 02:12:00,30.0,24.0,-100.00,NW,310,0.0,2.0,78,0.00,,,-99.99,,2013-04-04 07:12:00,
2013-04-04 02:22:00,30.0,24.0,-100.00,NW,310,0.0,0.0,78,0.00,,,-99.99,,2013-04-04 07:22:00,
2013-04-04 02:32:00,30.0,24.0,-100.00,NW,310,0.0,0.0,78,0.00,,,-99.99,,2013-04-04 07:32:00,
2013-04-04 02:42:00,30.0,24.0,-100.00,NW,310,0.0,0.0,78,0.00,,,-99.99,,2013-04-04 07:42:00,
2013-04-04 02:52:00,30.0,24.0,-100.00,NW,310,0.0,1.0,78,0.00,,,-99.99,,2013-04-04 07:52:00,
2013-04-04 03:02:00,30.0,25.0,-100.00,NW,310,1.0,2.0,79,0.00,,,-99.99,,2013-04-04 08:02:00,
2013-04-04 03:12:00,30.0,25.0,-100.00,NW,320,1.0,1.0,80,0.00,,,-99.99,,2013-04-04 08:12:00,
2013-04-04 03:22:00,30.0,25.0,-100.00,NW,320,0.0,0.0,81,0.00,,,-99.99,,2013-04-04 08:22:00,
2013-04-04 03:32:00,30.0,25.0,-100.00,SW,235,0.0,0.0,81,0.00,,,-99.99,,2013-04-04 08:32:00,
2013-04-04 03:43:00,30.0,25.0,-100.00,SW,235,0.0,0.0,81,0.00,,,-99.99,,2013-04-04 08:43:00,
2013-04-04 03:52:00,30.0,25.0,-100.00,SSW,205,1.0,1.0,81,0.00,,,-99.99,,2013-04-04 08:52:00,
2013-04-04 04:02:00,30.0,25.0,-100.00,SSE,150,2.0,3.0,80,0.00,,,-99.99,,2013-04-04 09:02:00,
2013-04-04 04:12:00,30.0,25.0,-100.00,SSE,155,2.0,3.0,80,0.00,,,-99.99,,2013-04-04 09:12:00,
2013-04-04 04:22:00,30.0,25.0,-100.00,SSE,155,2.0,3.0,80,0.00,,,-99.99,,2013-04-04 09:22:00,
2013-04-04 04:33:00,30.0,25.0,-100.00,SE,145,3.0,4.0,81,0.00,,,-99.99,,2013-04-04 09:33:00,
2013-04-04 04:43:00,30.0,25.0,-100.00,SE,145,2.0,3.0,81,0.00,,,-99.99,,2013-04-04 09:43:00,
2013-04-04 04:53:00,30.0,25.0,-100.00,SSE,150,1.0,2.0,81,0.00,,,-99.99,,2013-04-04 09:53:00,
2013-04-04 05:04:00,30.0,26.0,-100.00,SE,135,1.0,2.0,81,0.00,,,-99.99,,2013-04-04 10:04:00,
2013-04-04 05:12:00,30.0,26.0,-100.00,SSE,155,1.0,2.0,82,0.00,,,-99.99,,2013-04-04 10:12:00,
2013-04-04 05:23:00,31.0,26.0,-100.00,SSE,150,2.0,2.0,82,0.00,,,-99.99,,2013-04-04 10:23:00,
2013-04-04 05:33:00,31.0,26.0,-100.00,SE,145,3.0,4.0,82,0.00,,,-99.99,,2013-04-04 10:33:00,
2013-04-04 05:42:00,31.0,26.0,-100.00,SE,135,3.0,5.0,82,0.00,,,-99.99,,2013-04-04 10:42:00,
2013-04-04 05:53:00,31.0,26.0,-100.00,SE,130,4.0,6.0,83,0.00,,,-99.99,,2013-04-04 10:53:00,
2013-04-04 06:02:00,30.0,26.0,-100.00,SE,125,3.0,6.0,83,0.00,,,-99.99,,2013-04-04 11:02:00,
2013-04-04 06:12:00,30.0,26.0,-100.00,SE,135,1.0,4.0,83,0.00,,,-99.99,,2013-04-04 11:12:00,
2013-04-04 06:22:00,30.0,26.0,-100.00,SE,130,2.0,3.0,84,0.00,,,-99.99,,2013-04-04 11:22:00,
2013-04-04 06:32:00,30.0,26.0,-100.00,SE,130,1.0,2.0,84,0.00,,,-99.99,,2013-04-04 11:32:00,
2013-04-04 06:42:00,30.0,26.0,-100.00,SE,130,0.0,0.0,85,0.00,,,-99.99,,2013-04-04 11:42:00,
2013-04-04 06:53:00,30.0,26.0,-100.00,SE,145,1.0,1.0,85,0.00,,,-99.99,,2013-04-04 11:53:00,
2013-04-04 07:02:00,30.0,26.0,-100.00,SSW,195,1.0,2.0,85,0.00,,,-99.99,,2013-04-04 12:02:00,
2013-04-04 07:12:00,30.0,27.0,-100.00,South,185,1.0,1.0,85,0.00,,,-99.99,,2013-04-04 12:12:00,
2013-04-04 07:22:00,30.0,27.0,-100.00,WNW,285,1.0,1.0,85,0.00,,,-99.99,,2013-04-04 12:22:00,
2013-04-04 07:32:00,31.0,27.0,-100.00,WNW,285,0.0,1.0,85,0.00,,,-99.99,,2013-04-04 12:32:00,
2013-04-04 07:43:00,32.0,28.0,-100.00,WNW,285,0.0,1.0,85,0.00,,,-99.99,,2013-04-04 12:43:00,
2013-04-04 07:52:00,32.0,28.0,-100.00,West,260,0.0,0.0,85,0.00,,,-99.99,,2013-04-04 12:52:00,
2013-04-04 08:02:00,32.0,28.0,-100.00,West,260,0.0,1.0,85,0.00,,,-99.99,,2013-04-04 13:02:00,
2013-04-04 08:12:00,33.0,29.0,-100.00,SSW,200,1.0,1.0,84,0.00,,,-99.99,,2013-04-04 13:12:00,
2013-04-04 08:22:00,35.0,29.0,-100.00,West,275,0.0,1.0,80,0.00,,,-99.99,,2013-04-04 13:22:00,
2013-04-04 08:32:00,38.0,30.0,-100.00,South,185,0.0,2.0,74,0.00,,,-99.99,,2013-04-04 13:32:00,
2013-04-04 08:42:00,38.0,30.0,-100.00,South,185,0.0,2.0,74,0.00,,,-99.99,,2013-04-04 13:42:00,
2013-04-04 08:52:00,39.0,31.0,-100.00,ESE,120,1.0,1.0,71,0.00,,,-99.99,,2013-04-04 13:52:00,
2013-04-04 09:03:00,39.0,29.0,-100.00,NE,45,0.0,2.0,67,0.00,,,-99.99,,2013-04-04 14:03:00,
2013-04-04 09:12:00,39.0,29.0,-100.00,East,90,2.0,3.0,67,0.00,,,-99.99,,2013-04-04 14:12:00,
2013-04-04 09:22:00,40.0,29.0,-100.00,ENE,65,0.0,3.0,64,0.00,,,-99.99,,2013-04-04 14:22:00,
2013-04-04 09:32:00,42.0,29.0,-100.00,East,90,1.0,2.0,58,0.00,,,-99.99,,2013-04-04 14:32:00,
2013-04-04 09:42:00,42.0,29.0,-100.00,East,90,1.0,2.0,58,0.00,,,-99.99,,2013-04-04 14:42:00,
2013-04-04 09:52:00,44.0,28.0,-100.00,ENE,60,2.0,3.0,52,0.00,,,-99.99,,2013-04-04 14:52:00,
2013-04-04 10:02:00,44.0,28.0,-100.00,ENE,60,2.0,3.0,52,0.00,,,-99.99,,2013-04-04 15:02:00,
2013-04-04 10:12:00,46.0,29.0,-100.00,NE,45,1.0,2.0,50,0.00,,,-99.99,,2013-04-04 15:12:00,
2013-04-04 10:22:00,49.0,29.0,-100.00,NNW,335,4.0,7.0,44,0.00,,,-99.99,,2013-04-04 15:22:00,
2013-04-04 10:33:00,51.0,24.0,-100.00,West,275,7.0,12.0,35,0.00,,,-99.99,,2013-04-04 15:33:00,
2013-04-04 10:43:00,51.0,24.0,-100.00,West,275,7.0,12.0,35,0.00,,,-99.99,,2013-04-04 15:43:00,
2013-04-04 10:53:00,51.0,24.0,-100.00,WSW,255,6.0,12.0,34,0.00,,,-99.99,,2013-04-04 15:53:00,
2013-04-04 11:03:00,52.0,24.0,-100.00,West,275,4.0,10.0,33,0.00,,,-99.99,,2013-04-04 16:03:00,
2013-04-04 11:12:00,53.0,25.0,-100.00,NW,310,4.0,7.0,32,0.00,,,-99.99,,2013-04-04 16:12:00,
2013-04-04 11:23:00,53.0,25.0,-100.00,WNW,285,4.0,11.0,32,0.00,,,-99.99,,2013-04-04 16:23:00,
2013-04-04 11:32:00,54.0,25.0,-100.00,SW,215,4.0,7.0,32,0.00,,,-99.99,,2013-04-04 16:32:00,
2013-04-04 11:42:00,54.0,25.0,-100.00,WNW,295,6.0,9.0,31,0.00,,,-99.99,,2013-04-04 16:42:00,
2013-04-04 11:53:00,54.0,25.0,-100.00,SW,230,6.0,9.0,31,0.00,,,-99.99,,2013-04-04 16:53:00,
2013-04-04 12:03:00,56.0,26.0,-100.00,NE,45,1.0,7.0,31,0.00,,,-99.99,,2013-04-04 17:03:00,
2013-04-04 12:13:00,56.0,25.0,-100.00,West,260,6.0,11.0,30,0.00,,,-99.99,,2013-04-04 17:13:00,
2013-04-04 12:22:00,56.0,26.0,-100.00,West,270,7.0,12.0,30,0.00,,,-99.99,,2013-04-04 17:22:00,
2013-04-04 12:33:00,56.0,25.0,-100.00,SW,235,5.0,11.0,29,0.00,,,-99.99,,2013-04-04 17:33:00,
2013-04-04 12:42:00,57.0,25.0,-100.00,NNW,330,8.0,12.0,29,0.00,,,-99.99,,2013-04-04 17:42:00,
2013-04-04 12:52:00,57.0,25.0,-100.00,North,350,5.0,9.0,29,0.00,,,-99.99,,2013-04-04 17:52:00,
2013-04-04 13:02:00,57.0,26.0,-100.00,North,10,4.0,11.0,29,0.00,,,-99.99,,2013-04-04 18:02:00,
2013-04-04 13:12:00,57.0,26.0,-100.00,NNE,15,4.0,10.0,29,0.00,,,-99.99,,2013-04-04 18:12:00,
2013-04-04 13:22:00,59.0,26.0,-100.00,North,10,6.0,8.0,28,0.00,,,-99.99,,2013-04-04 18:22:00,
2013-04-04 13:32:00,58.0,26.0,-100.00,NNW,345,9.0,14.0,29,0.00,,,-99.99,,2013-04-04 18:32:00,
2013-04-04 13:43:00,60.0,27.0,-100.00,NW,305,6.0,9.0,29,0.00,,,-99.99,,2013-04-04 18:43:00,
2013-04-04 13:52:00,59.0,27.0,-100.00,WNW,290,8.0,12.0,28,0.00,,,-99.99,,2013-04-04 18:52:00,
2013-04-04 14:02:00,61.0,27.0,-100.00,North,5,4.0,9.0,27,0.00,,,-99.99,,2013-04-04 19:02:00,
2013-04-04 14:12:00,60.0,27.0,-100.00,WNW,300,7.0,12.0,27,0.00,,,-99.99,,2013-04-04 19:12:00,
2013-04-04 14:22:00,61.0,27.0,-100.00,North,355,6.0,9.0,27,0.00,,,-99.99,,2013-04-04 19:22:00,
2013-04-04 14:32:00,61.0,27.0,-100.00,West,270,2.0,10.0,27,0.00,,,-99.99,,2013-04-04 19:32:00,
2013-04-04 14:42:00,61.0,27.0,-100.00,ENE,60,2.0,7.0,27,0.00,,,-99.99,,2013-04-04 19:42:00,
2013-04-04 14:52:00,62.0,28.0,-100.00,West,270,6.0,9.0,27,0.00,,,-99.99,,2013-04-04 19:52:00,
2013-04-04 15:03:00,63.0,28.0,-100.00,NW,310,6.0,9.0,26,0.00,,,-99.99,,2013-04-04 20:03:00,
2013-04-04 15:12:00,62.0,28.0,-100.00,WSW,245,3.0,9.0,26,0.00,,,-99.99,,2013-04-04 20:12:00,
2013-04-04 15:22:00,62.0,27.0,-100.00,WSW,250,7.0,14.0,26,0.00,,,-99.99,,2013-04-04 20:22:00,
2013-04-04 15:32:00,63.0,28.0,-100.00,NW,325,1.0,11.0,26,0.00,,,-99.99,,2013-04-04 20:32:00,
2013-04-04 15:42:00,64.0,28.0,-100.00,WSW,250,4.0,8.0,26,0.00,,,-99.99,,2013-04-04 20:42:00,
2013-04-04 15:52:00,64.0,28.0,-100.00,West,265,2.0,7.0,25,0.00,,,-99.99,,2013-04-04 20:52:00,
2013-04-04 16:02:00,63.0,27.0,-100.00,West,260,9.0,16.0,25,0.00,,,-99.99,,2013-04-04 21:02:00,
2013-04-04 16:12:00,63.0,27.0,-100.00,West,265,6.0,12.0,25,0.00,,,-99.99,,2013-04-04 21:12:00,
2013-04-04 16:22:00,64.0,27.0,-100.00,SW,235,7.0,11.0,24,0.00,,,-99.99,,2013-04-04 21:22:00,
2013-04-04 16:32:00,64.0,28.0,-100.00,WNW,285,6.0,15.0,25,0.00,,,-99.99,,2013-04-04 21:32:00,
2013-04-04 16:43:00,65.0,28.0,-100.00,WNW,295,7.0,13.0,24,0.00,,,-99.99,,2013-04-04 21:43:00,
2013-04-04 16:52:00,66.0,29.0,-100.00,West,260,6.0,10.0,24,0.00,,,-99.99,,2013-04-04 21:52:00,
2013-04-04 17:03:00,65.0,28.0,-100.00,WSW,255,3.0,11.0,25,0.00,,,-99.99,,2013-04-04 22:03:00,
2013-04-04 17:12:00,65.0,29.0,-100.00,West,275,6.0,12.0,25,0.00,,,-99.99,,2013-04-04 22:12:00,
2013-04-04 17:23:00,65.0,29.0,-100.00,WNW,300,7.0,16.0,25,0.00,,,-99.99,,2013-04-04 22:23:00,
2013-04-04 17:33:00,65.0,29.0,-100.00,West,280,6.0,10.0,24,0.00,,,-99.99,,2013-04-04 22:33:00,
2013-04-04 17:42:00,66.0,29.0,-100.00,NW,310,9.0,11.0,24,0.00,,,-99.99,,2013-04-04 22:42:00,
2013-04-04 17:52:00,65.0,28.0,-100.00,NNW,335,7.0,12.0,24,0.00,,,-99.99,,2013-04-04 22:52:00,
2013-04-04 18:02:00,65.0,28.0,-100.00,NNW,335,7.0,12.0,24,0.00,,,-99.99,,2013-04-04 23:02:00,
2013-04-04 18:12:00,65.0,28.0,-100.00,NW,325,8.0,11.0,24,0.00,,,-99.99,,2013-04-04 23:12:00,
2013-04-04 18:22:00,65.0,29.0,-100.00,NW,305,4.0,13.0,25,0.00,,,-99.99,,2013-04-04 23:22:00,
2013-04-04 18:32:00,66.0,29.0,-100.00,WNW,290,5.0,9.0,25,0.00,,,-99.99,,2013-04-04 23:32:00,
2013-04-04 18:42:00,64.0,28.0,-100.00,NW,305,9.0,12.0,25,0.00,,,-99.99,,2013-04-04 23:42:00,
2013-04-04 18:52:00,64.0,29.0,-100.00,NW,310,7.0,13.0,26,0.00,,,-99.99,,2013-04-04 23:52:00,
2013-04-04 19:02:00,63.0,28.0,-100.00,NW,305,6.0,9.0,26,0.00,,,-99.99,,2013-04-05 00:02:00,
2013-04-04 19:12:00,63.0,28.0,-100.00,NW,315,6.0,11.0,27,0.00,,,-99.99,,2013-04-05 00:12:00,
2013-04-04 19:22:00,62.0,28.0,-100.00,NW,315,4.0,6.0,27,0.00,,,-99.99,,2013-04-05 00:22:00,
2013-04-04 19:32:00,62.0,28.0,-100.00,WNW,300,4.0,6.0,27,0.00,,,-99.99,,2013-04-05 00:32:00,
2013-04-04 19:42:00,61.0,27.0,-100.00,NW,305,4.0,4.0,28,0.00,,,-99.99,,2013-04-05 00:42:00,
2013-04-04 19:52:00,60.0,27.0,-100.00,NW,305,4.0,6.0,28,0.00,,,-99.99,,2013-04-05 00:52:00,
2013-04-04 20:02:00,59.0,27.0,-100.00,NW,305,2.0,4.0,29,0.00,,,-99.99,,2013-04-05 01:02:00,
2013-04-04 20:12:00,59.0,27.0,-100.00,WNW,300,4.0,7.0,29,0.00,,,-99.99,,2013-04-05 01:12:00,
2013-04-04 20:22:00,58.0,32.0,-100.00,NNW,335,8.0,16.0,36,0.00,,,-99.99,,2013-04-05 01:22:00,
2013-04-04 20:32:00,57.0,33.0,-100.00,NNW,340,8.0,12.0,40,0.00,,,-99.99,,2013-04-05 01:32:00,
2013-04-04 20:42:00,56.0,36.0,-100.00,North,350,7.0,11.0,45,0.00,,,-99.99,,2013-04-05 01:42:00,
2013-04-04 20:52:00,56.0,37.0,-100.00,NNW,345,7.0,11.0,48,0.00,,,-99.99,,2013-04-05 01:52:00,
2013-04-04 21:03:00,55.0,37.0,-100.00,NNW,330,6.0,10.0,50,0.00,,,-99.99,,2013-04-05 02:03:00,
2013-04-04 21:12:00,55.0,38.0,-100.00,NNW,330,8.0,11.0,52,0.00,,,-99.99,,2013-04-05 02:12:00,
2013-04-04 21:22:00,54.0,38.0,-100.00,NNW,330,7.0,13.0,54,0.00,,,-99.99,,2013-04-05 02:22:00,
2013-04-04 21:32:00,53.0,38.0,-100.00,NW,325,7.0,11.0,55,0.00,,,-99.99,,2013-04-05 02:32:00,
2013-04-04 21:42:00,53.0,38.0,-100.00,NW,315,7.0,11.0,57,0.00,,,-99.99,,2013-04-05 02:42:00,
2013-04-04 21:52:00,52.0,38.0,-100.00,NW,315,6.0,9.0,59,0.00,,,-99.99,,2013-04-05 02:52:00,
2013-04-04 22:02:00,51.0,38.0,-100.00,NW,320,7.0,9.0,61,0.00,,,-99.99,,2013-04-05 03:02:00,
2013-04-04 22:12:00,51.0,38.0,-100.00,NW,315,6.0,10.0,63,0.00,,,-99.99,,2013-04-05 03:12:00,
2013-04-04 22:22:00,50.0,38.0,-100.00,NW,310,6.0,10.0,64,0.00,,,-99.99,,2013-04-05 03:22:00,
2013-04-04 22:32:00,49.0,38.0,-100.00,NW,310,7.0,9.0,65,0.00,,,-99.99,,2013-04-05 03:32:00,
2013-04-04 22:43:00,49.0,38.0,-100.00,WNW,300,4.0,7.0,66,0.00,,,-99.99,,2013-04-05 03:43:00,
2013-04-04 22:53:00,49.0,38.0,-100.00,WNW,300,2.0,6.0,67,0.00,,,-99.99,,2013-04-05 03:53:00,
2013-04-04 23:02:00,48.0,38.0,-100.00,NW,310,3.0,4.0,68,0.00,,,-99.99,,2013-04-05 04:02:00,
2013-04-04 23:12:00,48.0,38.0,-100.00,NW,305,4.0,4.0,68,0.00,,,-99.99,,2013-04-05 04:12:00,
2013-04-04 23:22:00,47.0,38.0,-100.00,NW,320,5.0,6.0,69,0.00,,,-99.99,,2013-04-05 04:22:00,
2013-04-04 23:32:00,47.0,38.0,-100.00,NW,315,6.0,6.0,69,0.00,,,-99.99,,2013-04-05 04:32:00,
2013-04-04 23:42:00,46.0,37.0,-100.00,NW,315,5.0,7.0,70,0.00,,,-99.99,,2013-04-05 04:42:00,
2013-04-04 23:52:00,46.0,37.0,-100.00,NW,310,5.0,7.0,70,0.00,,,-99.99,,2013-04-05 04:52:00,